Location: Hillern
(53.0557°N, 9.8577°E)
Time: 18:59:19
(UTC+00:00)

Cosmos 2360 Rocket - Pass Details

Date: 19 May 2025
Orbit: 834 x 842 km, 71.0° (Epoch: 20 June)

Event Time Altitude Azimuth Distance (km) Brightness Sun altitude
Rises 21:24:14 0° 328° (NNW) 3,395 7.4 -13.0°
Reaches altitude 10° 21:26:59 10° 339° (NNW) 2,458 6.1 -13.2°
Maximum altitude 21:31:58 31° 41° (NE) 1,426 3.6 -13.5°
Drops below altitude 10° 21:36:56 10° 103° (ESE) 2,448 4.3 -13.8°
Enters shadow 21:37:48 - 107° (ESE) 2,739 4.5 -13.9°
